When you browse on this site, cookies collect data to enhance your experience and personalize the content and advertising you see.
Visit our Privacy Policy to learn more. By continuing to use the site, you agree to this use of cookies and data.
  • en Suisse
  • Liste des pays
  • À 7 jours
  • Température de l'eau
  • Carte satellitaire
  • Carte météo
  • Widgets météo
  • user-avatar
    Se connecter

    Météo par heure à Zalozie

    Ce jour, 18 Décembre, Mardi

    Heure Température Précipitation Vent Pression Humidité
    00:00 -2°C° 0 mm 2 m/s 756 mmHg 90%
    01:00 +1°C° 0 mm 1 m/s 756 mmHg 92%
    02:00 +1°C° 0 mm 1 m/s 757 mmHg 92%
    03:00 +1°C° 0 mm 1 m/s 757 mmHg 92%
    04:00 +1°C° 0 mm 1 m/s 757 mmHg 92%
    05:00 +1°C° 0 mm 1 m/s 757 mmHg 92%
    06:00 +1°C° 0 mm 1 m/s 757 mmHg 92%
    07:00 +1°C° 0 mm 1 m/s 757 mmHg 92%
    08:00 +1°C° 0 mm 1 m/s 757 mmHg 91%
    09:00 +2°C° 0 mm 1 m/s 757 mmHg 91%
    10:00 +1°C° 0 mm 2 m/s 757 mmHg 90%
    11:00 +1°C° 0 mm 2 m/s 757 mmHg 90%
    12:00 +1°C° 0 mm 2 m/s 757 mmHg 90%
    13:00 +2°C° 0 mm 2 m/s 757 mmHg 90%
    14:00 +1°C° 0 mm 2 m/s 757 mmHg 91%
    15:00 +1°C° 0 mm 2 m/s 757 mmHg 91%
    16:00 +1°C° 0 mm 2 m/s 758 mmHg 92%
    17:00 +1°C° 0 mm 2 m/s 757 mmHg 92%
    18:00 +1°C° 0 mm 2 m/s 757 mmHg 92%
    19:00 -1°C° 0 mm 2 m/s 757 mmHg 91%
    20:00 -1°C° 0 mm 2 m/s 757 mmHg 91%
    21:00 -1°C° 0 mm 2 m/s 757 mmHg 91%
    22:00 -1°C° 0 mm 3 m/s 757 mmHg 91%
    23:00 -1°C° 0 mm 3 m/s 757 mmHg 90%

    Demain, 19 Décembre, Mercredi

    Heure Température Précipitation Vent Pression Humidité
    00:00 -1°C° 0 mm 3 m/s 757 mmHg 89%
    01:00 -2°C° 0 mm 3 m/s 757 mmHg 89%
    02:00 -2°C° 0 mm 3 m/s 757 mmHg 88%
    03:00 -2°C° 0 mm 3 m/s 756 mmHg 88%
    04:00 -3°C° 0 mm 4 m/s 756 mmHg 87%
    05:00 -3°C° 0 mm 4 m/s 756 mmHg 87%
    06:00 -3°C° 0 mm 4 m/s 756 mmHg 86%
    07:00 -3°C° 0 mm 4 m/s 756 mmHg 86%
    08:00 -4°C° 0 mm 5 m/s 755 mmHg 83%
    09:00 -2°C° 0 mm 5 m/s 755 mmHg 80%
    10:00 -2°C° 0 mm 5 m/s 755 mmHg 77%
    11:00 -1°C° 0 mm 5 m/s 755 mmHg 75%
    12:00 -1°C° 0 mm 5 m/s 754 mmHg 73%
    13:00 -1°C° 0 mm 5 m/s 754 mmHg 70%
    14:00 -1°C° 0 mm 5 m/s 754 mmHg 72%
    15:00 -1°C° 0 mm 5 m/s 753 mmHg 73%
    16:00 -2°C° 0 mm 5 m/s 753 mmHg 75%
    17:00 -2°C° 0 mm 5 m/s 753 mmHg 75%
    18:00 -2°C° 0 mm 5 m/s 753 mmHg 75%
    19:00 -2°C° 0 mm 5 m/s 753 mmHg 75%
    20:00 -2°C° 0 mm 5 m/s 753 mmHg 75%
    21:00 -2°C° 0 mm 5 m/s 752 mmHg 75%
    22:00 -2°C° 0 mm 4 m/s 752 mmHg 74%
    23:00 -2°C° 0 mm 4 m/s 752 mmHg 73%

    Après-demain, 20 Décembre, Jeudi

    Heure Température Précipitation Vent Pression Humidité
    00:00 -2°C° 0 mm 4 m/s 752 mmHg 72%
    01:00 -2°C° 0 mm 4 m/s 752 mmHg 71%
    02:00 -2°C° 0 mm 4 m/s 751 mmHg 71%
    03:00 -2°C° 0 mm 4 m/s 751 mmHg 71%
    04:00 -2°C° 0 mm 4 m/s 751 mmHg 71%
    05:00 -2°C° 0 mm 4 m/s 751 mmHg 72%
    06:00 -2°C° 0 mm 4 m/s 751 mmHg 72%
    07:00 -2°C° 0 mm 4 m/s 751 mmHg 72%
    08:00 -2°C° 0 mm 4 m/s 751 mmHg 72%
    09:00 -2°C° 0 mm 4 m/s 751 mmHg 71%
    10:00 -2°C° 0 mm 4 m/s 751 mmHg 71%
    11:00 -2°C° 0 mm 4 m/s 751 mmHg 71%
    12:00 -2°C° 0 mm 4 m/s 751 mmHg 70%
    13:00 -2°C° 0 mm 4 m/s 750 mmHg 70%
    14:00 -1°C° 0 mm 3 m/s 750 mmHg 72%
    15:00 -1°C° 0 mm 3 m/s 750 mmHg 75%
    16:00 -2°C° 0 mm 3 m/s 750 mmHg 77%
    17:00 -1°C° 0 mm 3 m/s 751 mmHg 78%
    18:00 -1°C° 0 mm 3 m/s 751 mmHg 79%
    19:00 -1°C° 0 mm 3 m/s 751 mmHg 80%
    20:00 -1°C° 0.2 mm 3 m/s 751 mmHg 83%
    21:00 -1°C° 0.2 mm 3 m/s 751 mmHg 86%
    22:00 -1°C° 0.2 mm 3 m/s 751 mmHg 89%
    23:00 -1°C° 0.1 mm 3 m/s 751 mmHg 89%

    21 Décembre, Vendredi

    Heure Température Précipitation Vent Pression Humidité
    00:00 0°C° 0.1 mm 3 m/s 751 mmHg 90%
    01:00 0°C° 0.1 mm 3 m/s 751 mmHg 91%
    02:00 -1°C° 0 mm 4 m/s 750 mmHg 91%
    03:00 -1°C° 0 mm 4 m/s 750 mmHg 91%
    04:00 -1°C° 0 mm 4 m/s 750 mmHg 91%
    05:00 -1°C° 0 mm 4 m/s 750 mmHg 91%
    06:00 -1°C° 0 mm 4 m/s 750 mmHg 92%
    07:00 0°C° 0 mm 3 m/s 750 mmHg 92%
    08:00 -1°C° 0 mm 4 m/s 750 mmHg 91%
    09:00 -1°C° 0 mm 4 m/s 750 mmHg 90%
    10:00 0°C° 0 mm 4 m/s 750 mmHg 89%
    11:00 0°C° 0 mm 4 m/s 749 mmHg 89%
    12:00 0°C° 0 mm 4 m/s 749 mmHg 88%
    13:00 +1°C° 0 mm 4 m/s 748 mmHg 87%
    14:00 +1°C° 0 mm 4 m/s 748 mmHg 87%
    15:00 0°C° 0 mm 4 m/s 747 mmHg 88%
    16:00 0°C° 0 mm 5 m/s 747 mmHg 88%
    17:00 0°C° 0.3 mm 5 m/s 746 mmHg 88%
    18:00 -1°C° 0.3 mm 6 m/s 745 mmHg 87%
    19:00 +1°C° 0.3 mm 6 m/s 744 mmHg 87%
    20:00 +1°C° 1.5 mm 6 m/s 744 mmHg 87%
    21:00 0°C° 1.5 mm 7 m/s 743 mmHg 87%
    22:00 0°C° 1.5 mm 7 m/s 742 mmHg 87%
    23:00 +2°C° 1.1 mm 7 m/s 741 mmHg 86%

    22 Décembre, Samedi

    Heure Température Précipitation Vent Pression Humidité
    00:00 +3°C° 1.1 mm 7 m/s 741 mmHg 86%
    01:00 +4°C° 1.1 mm 8 m/s 741 mmHg 85%
    02:00 +4°C° 0.1 mm 8 m/s 741 mmHg 85%
    03:00 +4°C° 0.1 mm 8 m/s 742 mmHg 85%
    04:00 +2°C° 0.1 mm 8 m/s 742 mmHg 85%
    05:00 +3°C° 0 mm 7 m/s 743 mmHg 85%
    06:00 +3°C° 0 mm 7 m/s 743 mmHg 85%
    07:00 +2°C° 0 mm 6 m/s 744 mmHg 85%
    08:00 +2°C° 0 mm 6 m/s 744 mmHg 86%
    09:00 +2°C° 0 mm 5 m/s 745 mmHg 87%
    10:00 +2°C° 0 mm 5 m/s 745 mmHg 88%
    11:00 +3°C° 0.2 mm 5 m/s 744 mmHg 87%
    12:00 +3°C° 0.2 mm 5 m/s 744 mmHg 87%
    13:00 +3°C° 0.2 mm 6 m/s 744 mmHg 86%
    14:00 +4°C° 0.4 mm 6 m/s 743 mmHg 87%
    15:00 +4°C° 0.4 mm 6 m/s 743 mmHg 89%
    16:00 +4°C° 0.4 mm 6 m/s 743 mmHg 90%
    17:00 +4°C° 0.1 mm 6 m/s 743 mmHg 89%
    18:00 +4°C° 0.1 mm 6 m/s 742 mmHg 89%
    19:00 +4°C° 0.1 mm 6 m/s 742 mmHg 89%
    20:00 +4°C° 0.1 mm 6 m/s 742 mmHg 89%
    21:00 +4°C° 0.1 mm 6 m/s 743 mmHg 88%
    22:00 +4°C° 0.1 mm 6 m/s 743 mmHg 88%
    23:00 +4°C° 0.7 mm 6 m/s 744 mmHg 89%

    23 Décembre, Dimanche

    Heure Température Précipitation Vent Pression Humidité
    00:00 +4°C° 0.7 mm 7 m/s 744 mmHg 89%
    01:00 +4°C° 0.7 mm 7 m/s 745 mmHg 89%
    02:00 +4°C° 0.2 mm 7 m/s 745 mmHg 88%
    03:00 +4°C° 0.2 mm 7 m/s 746 mmHg 86%
    04:00 +4°C° 0.2 mm 6 m/s 746 mmHg 85%
    05:00 +3°C° 0.1 mm 6 m/s 747 mmHg 84%
    06:00 +3°C° 0.1 mm 6 m/s 747 mmHg 82%
    07:00 +3°C° 0.1 mm 6 m/s 748 mmHg 81%
    08:00 +3°C° 0.1 mm 7 m/s 748 mmHg 81%
    09:00 +3°C° 0.1 mm 7 m/s 748 mmHg 80%
    10:00 +4°C° 0.1 mm 7 m/s 749 mmHg 79%
    11:00 +4°C° 0.2 mm 8 m/s 749 mmHg 78%
    12:00 +4°C° 0.2 mm 8 m/s 749 mmHg 77%
    13:00 +4°C° 0.2 mm 8 m/s 749 mmHg 76%
    14:00 +4°C° 0.2 mm 8 m/s 749 mmHg 77%
    15:00 +4°C° 0.2 mm 8 m/s 749 mmHg 78%
    16:00 +4°C° 0.2 mm 8 m/s 749 mmHg 79%
    17:00 +4°C° 0.2 mm 8 m/s 750 mmHg 80%
    18:00 +4°C° 0.2 mm 8 m/s 750 mmHg 81%
    19:00 +2°C° 0.2 mm 8 m/s 751 mmHg 82%
    20:00 +3°C° 0.1 mm 7 m/s 752 mmHg 83%
    21:00 +3°C° 0.1 mm 7 m/s 752 mmHg 84%
    22:00 +3°C° 0.1 mm 6 m/s 753 mmHg 85%
    23:00 +3°C° 0 mm 6 m/s 753 mmHg 87%
    Voir plus